EW9485 Weather Reports


Display with metric or nautical units.
time (UTC)temp
F
wind
direction
speed
MPH
gust
MPH
rain 1hr
in
rain 24hr
in
rain mn
in
humidity
%
barometer
mb
20260906215545 90 260 2.0 10.0 0.00 0.00 0.00 71 1009.7
20260906215042 90 252 2.0 12.0 0.00 0.00 0.00 69 1009.8
20260906214559 89 198 5.0 14.0 0.00 0.00 0.00 68 1009.8
20260906214044 89 238 8.0 14.0 0.00 0.00 0.00 69 1009.8
20260906213545 88 272 8.0 15.0 0.00 0.00 0.00 70 1009.9
20260906213100 89 237 7.0 15.0 0.00 0.00 0.00 69 1009.9
20260906212546 89 277 8.0 15.0 0.00 0.00 0.00 68 1009.9
20260906212048 90 200 6.0 14.0 0.00 0.00 0.00 69 1009.8
20260906211610 90 221 6.0 14.0 0.00 0.00 0.00 69 1009.9
20260906211045 90 223 8.0 14.0 0.00 0.00 0.00 69 1009.9
20260906210545 90 265 8.0 14.0 0.00 0.00 0.00 67 1010.1
20260906210112 90 227 7.0 13.0 0.00 0.00 0.00 66 1010.1
20260906205542 90 216 6.0 13.0 0.00 0.00 0.00 67 1010.2
20260906205045 91 221 5.0 12.0 0.00 0.00 0.00 67 1010.1
20260906204557 91 219 5.0 12.0 0.00 0.00 0.00 70 1010.1
20260906204044 91 216 5.0 12.0 0.00 0.00 0.00 67 1010.4
20260906203544 90 200 6.0 11.0 0.00 0.00 0.00 68 1010.3
20260906203102 91 178 4.0 11.0 0.00 0.00 0.00 67 1010.3
20260906202544 90 234 6.0 11.0 0.00 0.00 0.00 67 1010.6
20260906202045 91 246 4.0 9.0 0.00 0.00 0.00 68 1010.6
20260906201607 91 211 4.0 14.0 0.00 0.00 0.00 72 1010.7
20260906201048 90 276 5.0 14.0 0.00 0.00 0.00 72 1010.8
20260906200548 91 235 6.0 13.0 0.00 0.00 0.00 68 1010.8
20260906195546 89 234 7.0 14.0 0.00 0.00 0.00 69 1011.1
20260906195045 90 246 5.0 14.0 0.00 0.00 0.00 69 1011.1
20260906194619 90 261 9.0 14.0 0.00 0.00 0.00 69 1011.2
20260906194046 91 252 4.0 12.0 0.00 0.00 0.00 72 1011.3
20260906193546 90 263 6.0 12.0 0.00 0.00 0.00 70 1011.5
20260906193104 90 264 5.0 13.0 0.00 0.00 0.00 71 1011.4
20260906192545 91 211 6.0 13.0 0.00 0.00 0.00 72 1011.5
20260906192045 91 236 3.0 11.0 0.00 0.00 0.00 72 1011.5
20260906191608 90 228 5.0 13.0 0.00 0.00 0.00 72 1011.5
20260906191044 91 293 6.0 13.0 0.00 0.00 0.00 70 1011.6
20260906190545 91 244 5.0 12.0 0.00 0.00 0.00 71 1011.7
20260906190059 91 279 6.0 11.0 0.00 0.00 0.00 69 1011.8
20260906185542 90 304 4.0 9.0 0.00 0.00 0.00 71 1012.0
20260906185048 90 297 4.0 11.0 0.00 0.00 0.00 71 1012.1
20260906184607 90 275 5.0 11.0 0.00 0.00 0.00 72 1012.0
20260906184045 90 292 5.0 11.0 0.00 0.00 0.00 71 1011.9
20260906183545 90 242 6.0 11.0 0.00 0.00 0.00 72 1012.0
20260906183106 90 225 3.0 11.0 0.00 0.00 0.00 71 1012.0
20260906182546 91 309 4.0 12.0 0.00 0.00 0.00 72 1012.0
20260906182045 91 244 5.0 12.0 0.00 0.00 0.00 71 1012.2
20260906181603 91 277 5.0 12.0 0.00 0.00 0.00 71 1012.2
20260906181046 90 200 6.0 12.0 0.00 0.00 0.00 72 1012.2
20260906180546 90 177 6.0 11.0 0.00 0.00 0.00 72 1012.3
20260906180058 89 215 6.0 14.0 0.00 0.00 0.00 73 1012.5
20260906175543 89 211 6.0 14.0 0.00 0.00 0.00 72 1012.6
20260906175045 90 223 6.0 14.0 0.00 0.00 0.00 70 1012.7
20260906174554 90 248 6.0 13.0 0.00 0.00 0.00 72 1012.7
20260906174045 90 203 5.0 12.0 0.00 0.00 0.00 71 1012.7
20260906173545 90 234 7.0 12.0 0.00 0.00 0.00 71 1012.7
20260906173053 90 251 6.0 14.0 0.00 0.00 0.00 72 1012.8
20260906172544 90 233 6.0 14.0 0.00 0.00 0.00 73 1012.8
20260906172046 92 205 4.0 10.0 0.00 0.00 0.00 71 1012.7
20260906171607 90 220 4.0 10.0 0.00 0.00 0.00 72 1012.9
20260906171045 90 277 6.0 12.0 0.00 0.00 0.00 70 1012.9
20260906170541 90 265 3.0 12.0 0.00 0.00 0.00 71 1013.0
20260906170103 90 225 6.0 11.0 0.00 0.00 0.00 70 1013.0
20260906165545 90 271 3.0 9.0 0.00 0.00 0.00 69 1012.8
20260906165045 90 254 4.0 9.0 0.00 0.00 0.00 75 1012.9
20260906164558 90 267 3.0 12.0 0.00 0.00 0.00 76 1013.0
20260906164045 90 225 5.0 12.0 0.00 0.00 0.00 71 1013.0
20260906163544 90 244 5.0 10.0 0.00 0.00 0.00 71 1013.1
20260906163054 89 259 5.0 10.0 0.00 0.00 0.00 70 1013.3
20260906162543 89 202 5.0 9.0 0.00 0.00 0.00 71 1013.4
20260906162047 90 281 4.0 11.0 0.00 0.00 0.00 70 1013.5
20260906161603 89 199 5.0 11.0 0.00 0.00 0.00 71 1013.6
20260906161045 89 254 3.0 10.0 0.00 0.00 0.00 69 1013.5
20260906160543 90 238 5.0 10.0 0.00 0.00 0.00 73 1013.3
20260906160059 89 221 4.0 10.0 0.00 0.00 0.00 70 1013.4
20260906155546 89 261 4.0 10.0 0.00 0.01 0.00 70 1013.4
20260906155046 89 238 4.0 9.0 0.00 0.01 0.00 69 1013.4
20260906154605 90 257 4.0 9.0 0.00 0.01 0.00 68 1013.5
20260906154046 89 279 5.0 9.0 0.00 0.01 0.00 72 1013.4
20260906153545 88 224 4.0 9.0 0.00 0.01 0.00 71 1013.4
20260906153101 88 261 5.0 9.0 0.00 0.01 0.00 74 1013.5
20260906152547 88 283 4.0 8.0 0.00 0.01 0.00 71 1013.5
20260906152046 88 224 1.0 6.0 0.00 0.01 0.00 74 1013.5
20260906151558 87 263 1.0 6.0 0.00 0.01 0.00 75 1013.6
20260906151045 87 232 1.0 5.0 0.00 0.01 0.00 79 1013.7
20260906150545 85 0 0.0 5.0 0.00 0.01 0.00 79 1013.7
20260906145545 85 144 2.0 6.0 0.00 0.02 0.00 78 1013.8
20260906145045 86 179 2.0 6.0 0.00 0.02 0.00 77 1013.6
20260906144621 87 194 2.0 6.0 0.00 0.02 0.00 75 1013.7
20260906144045 87 338 1.0 5.0 0.00 0.02 0.00 75 1013.6
20260906143545 87 316 1.0 5.0 0.00 0.02 0.00 78 1013.6
20260906143102 86 282 1.0 7.0 0.00 0.02 0.00 79 1013.6
20260906142546 85 338 3.0 7.0 0.00 0.02 0.00 77 1013.8
20260906142045 85 338 3.0 6.0 0.00 0.02 0.00 77 1013.7
20260906141628 85 341 2.0 8.0 0.00 0.02 0.00 78 1013.6
20260906141048 85 307 1.0 8.0 0.00 0.02 0.00 79 1013.6
20260906140545 85 12 2.0 6.0 0.00 0.02 0.00 79 1013.6
20260906140110 85 350 4.0 6.0 0.00 0.02 0.00 78 1013.6
20260906135545 85 355 2.0 7.0 0.00 0.02 0.00 78 1013.6
20260906135044 85 20 3.0 7.0 0.00 0.02 0.00 78 1013.5
20260906134601 85 46 1.0 4.0 0.00 0.02 0.00 79 1013.4
20260906134048 84 0 1.0 6.0 0.00 0.02 0.00 80 1013.5
20260906133547 84 46 2.0 6.0 0.00 0.02 0.00 80 1013.5
20260906133056 84 26 2.0 6.0 0.00 0.02 0.00 81 1013.6
20260906132546 83 30 2.0 5.0 0.00 0.02 0.00 82 1013.5
20260906132048 83 30 3.0 5.0 0.00 0.02 0.00 83 1013.3
20260906131556 82 332 2.0 4.0 0.00 0.02 0.00 84 1013.4
20260906131045 82 17 1.0 5.0 0.00 0.02 0.00 85 1013.3
20260906130545 81 15 2.0 5.0 0.00 0.02 0.00 86 1013.2
20260906130104 81 14 2.0 5.0 0.00 0.02 0.00 87 1013.3
20260906125548 81 346 2.0 4.0 0.00 0.02 0.00 88 1013.3
20260906125048 80 42 1.0 4.0 0.00 0.02 0.00 89 1013.1
20260906124603 80 43 1.0 3.0 0.00 0.02 0.00 89 1013.1
20260906124045 80 43 0.0 2.0 0.00 0.02 0.00 89 1013.0
20260906123546 79 43 0.0 3.0 0.00 0.02 0.00 89 1013.1
20260906123105 79 43 0.0 3.0 0.00 0.02 0.00 89 1013.1
20260906122545 79 43 1.0 3.0 0.00 0.02 0.00 89 1013.3
20260906122045 78 43 1.0 3.0 0.00 0.02 0.00 89 1013.3
20260906121559 78 43 0.0 3.0 0.00 0.02 0.00 89 1013.2
20260906121047 78 43 1.0 3.0 0.00 0.02 0.00 89 1013.1
20260906120545 77 0 1.0 3.0 0.00 0.02 0.00 89 1013.0
20260906120106 77 34 1.0 3.0 0.00 0.02 0.00 88 1013.0
20260906115543 77 33 0.0 2.0 0.00 0.02 0.00 88 1012.9
20260906115042 77 0 0.0 2.0 0.00 0.02 0.00 88 1012.9
20260906114556 77 33 0.0 2.0 0.00 0.02 0.00 88 1012.8
20260906114045 77 33 0.0 2.0 0.00 0.02 0.00 88 1012.8
20260906113545 77 33 0.0 1.0 0.00 0.02 0.00 88 1012.8
20260906113106 77 0 0.0 2.0 0.00 0.02 0.00 88 1012.7
20260906112545 77 0 0.0 2.0 0.00 0.02 0.00 88 1012.7
20260906112045 77 0 1.0 2.0 0.00 0.02 0.00 88 1012.5
20260906111602 77 0 1.0 2.0 0.00 0.02 0.00 88 1012.5
20260906111045 77 33 0.0 2.0 0.00 0.02 0.00 88 1012.3
20260906110545 77 0 0.0 2.0 0.00 0.02 0.00 88 1012.1
20260906110057 77 0 0.0 4.0 0.00 0.02 0.00 88 1012.0
20260906105543 78 33 0.0 4.0 0.00 0.02 0.00 88 1012.1
20260906105044 78 33 1.0 4.0 0.00 0.02 0.00 88 1012.2
20260906104617 78 33 1.0 3.0 0.00 0.02 0.00 88 1012.2
20260906104045 78 33 0.0 4.0 0.00 0.02 0.00 88 1012.4
20260906103546 78 33 1.0 4.0 0.00 0.02 0.00 88 1012.4
20260906103055 78 31 2.0 4.0 0.00 0.02 0.00 88 1012.3
20260906102545 78 31 1.0 5.0 0.00 0.02 0.00 88 1012.2
20260906102043 78 31 1.0 5.0 0.00 0.02 0.00 88 1012.2
20260906101554 78 30 2.0 5.0 0.00 0.02 0.00 88 1012.2
20260906101045 78 26 2.0 4.0 0.00 0.02 0.00 88 1012.1
20260906100543 78 17 1.0 4.0 0.00 0.02 0.00 88 1012.0
20260906100058 78 18 1.0 5.0 0.00 0.02 0.00 88 1012.1
20260906095546 78 18 2.0 6.0 0.00 0.02 0.00 88 1012.1
20260906095043 78 19 3.0 6.0 0.00 0.02 0.00 88 1012.1
20260906094637 78 60 3.0 6.0 0.00 0.02 0.00 88 1011.9
20260906094045 78 25 1.0 4.0 0.00 0.02 0.00 88 1011.9
20260906093545 78 40 1.0 4.0 0.00 0.02 0.00 88 1011.8
20260906093105 78 40 1.0 4.0 0.00 0.02 0.00 88 1011.8
20260906092548 78 30 1.0 4.0 0.00 0.02 0.00 88 1011.7
20260906092045 78 28 1.0 4.0 0.00 0.02 0.00 88 1011.7
20260906091609 78 27 1.0 4.0 0.00 0.02 0.00 88 1011.8
20260906091043 78 27 2.0 4.0 0.00 0.02 0.00 88 1011.7
20260906090543 78 13 1.0 4.0 0.00 0.02 0.00 88 1011.7
20260906090100 78 13 1.0 5.0 0.00 0.02 0.00 88 1011.7
20260906085542 78 12 2.0 5.0 0.00 0.02 0.00 88 1011.6
20260906085042 78 23 2.0 4.0 0.00 0.02 0.00 88 1011.6
20260906084556 78 292 1.0 3.0 0.00 0.02 0.00 88 1011.5
20260906084042 78 291 0.0 2.0 0.00 0.02 0.00 88 1011.4
20260906083545 78 291 1.0 2.0 0.00 0.02 0.00 88 1011.5
20260906083054 78 291 1.0 2.0 0.00 0.02 0.00 88 1011.4
20260906082543 78 291 0.0 1.0 0.00 0.02 0.00 87 1011.4
20260906082046 78 0 0.0 1.0 0.00 0.02 0.00 87 1011.4
20260906081602 78 291 0.0 2.0 0.00 0.02 0.00 87 1011.3
20260906081042 78 0 0.0 2.0 0.00 0.02 0.00 87 1011.3
20260906080545 78 291 1.0 2.0 0.00 0.02 0.00 87 1011.4
20260906080058 79 291 1.0 2.0 0.00 0.02 0.00 86 1011.4
20260906075546 79 0 1.0 2.0 0.00 0.02 0.00 86 1011.5
20260906075043 79 0 0.0 1.0 0.00 0.02 0.00 85 1011.4
20260906074556 80 0 0.0 2.0 0.00 0.02 0.00 85 1011.4
20260906074043 80 291 0.0 4.0 0.00 0.02 0.00 84 1011.4
20260906073543 80 0 1.0 4.0 0.00 0.02 0.00 84 1011.4
20260906073058 81 290 2.0 3.0 0.00 0.02 0.00 83 1011.4
20260906072543 81 289 0.0 3.0 0.00 0.02 0.00 83 1011.4
20260906072043 82 289 1.0 5.0 0.00 0.02 0.00 82 1011.4
20260906071552 82 0 1.0 5.0 0.00 0.02 0.00 83 1011.4
20260906071048 81 296 1.0 3.0 0.00 0.02 0.00 83 1011.5
20260906070543 81 296 0.0 3.0 0.00 0.02 0.00 83 1011.4
20260906070057 81 296 1.0 3.0 0.00 0.02 0.00 83 1011.4
20260906065543 81 296 0.0 4.0 0.00 0.02 0.00 83 1011.5
20260906065046 81 0 0.0 4.0 0.00 0.02 0.00 82 1011.5
20260906064554 81 275 2.0 4.0 0.00 0.02 0.00 83 1011.6
20260906064044 81 280 1.0 4.0 0.00 0.02 0.00 83 1011.7
20260906063545 81 260 0.0 4.0 0.00 0.02 0.00 83 1011.6
20260906063057 81 0 1.0 4.0 0.00 0.02 0.00 82 1011.5
20260906062542 81 259 1.0 4.0 0.00 0.02 0.00 82 1011.5
20260906062051 81 228 1.0 4.0 0.00 0.02 0.00 82 1011.4
20260906061556 81 227 1.0 8.0 0.00 0.02 0.00 82 1011.5
20260906061045 82 227 2.0 8.0 0.00 0.02 0.00 82 1011.4
20260906060542 81 238 2.0 8.0 0.00 0.02 0.00 82 1011.5
20260906060054 81 215 2.0 6.0 0.00 0.02 0.00 83 1011.5
20260906055544 81 227 3.0 6.0 0.00 0.02 0.00 83 1011.7
20260906055043 81 258 1.0 6.0 0.00 0.02 0.00 83 1011.9
20260906054551 81 238 1.0 4.0 0.00 0.02 0.00 83 1011.9
20260906054049 81 236 1.0 4.0 0.00 0.02 0.00 83 1012.0
20260906053618 81 232 1.0 4.0 0.00 0.02 0.00 83 1011.9
20260906053100 82 238 1.0 6.0 0.00 0.02 0.00 83 1011.9
20260906052545 81 235 1.0 7.0 0.00 0.02 0.00 83 1012.0
20260906052046 81 235 2.0 7.0 0.00 0.02 0.00 83 1012.0
20260906051555 81 221 2.0 5.0 0.00 0.02 0.00 83 1012.2
20260906051047 81 207 1.0 7.0 0.00 0.02 0.00 83 1012.4
20260906050545 82 236 2.0 7.0 0.00 0.02 0.00 83 1012.4
20260906050128 82 240 2.0 5.0 0.00 0.02 0.00 83 1012.5
20260906045543 82 235 2.0 5.0 0.00 0.02 0.02 82 1012.5
20260906045043 82 233 1.0 4.0 0.00 0.02 0.02 82 1012.7
20260906044559 82 0 1.0 3.0 0.00 0.02 0.02 83 1012.8
20260906044049 82 229 1.0 4.0 0.00 0.02 0.02 83 1012.8
20260906043543 82 229 2.0 4.0 0.00 0.02 0.02 83 1012.8
20260906043057 82 226 1.0 3.0 0.00 0.02 0.02 83 1012.7
20260906042542 82 225 1.0 3.0 0.00 0.02 0.02 82 1012.6
20260906042042 82 225 1.0 4.0 0.00 0.02 0.02 82 1012.8
20260906041554 82 0 1.0 4.0 0.00 0.02 0.02 82 1012.8
20260906041043 82 225 2.0 4.0 0.00 0.02 0.02 82 1012.8
20260906040544 82 225 1.0 4.0 0.00 0.02 0.02 83 1012.8
20260906040137 82 229 1.0 3.0 0.00 0.02 0.02 83 1012.9
20260906035544 82 0 0.0 4.0 0.00 0.02 0.02 82 1012.8
20260906035044 82 229 1.0 4.0 0.00 0.02 0.02 82 1012.8
20260906034605 82 238 1.0 4.0 0.00 0.02 0.02 82 1012.8
20260906034045 82 237 0.0 4.0 0.00 0.02 0.02 82 1012.9
20260906033545 82 237 2.0 4.0 0.00 0.02 0.02 82 1013.0
20260906033104 82 238 1.0 4.0 0.00 0.02 0.02 82 1013.1
20260906032545 82 238 1.0 5.0 0.00 0.02 0.02 82 1013.1
20260906032042 82 237 1.0 5.0 0.00 0.02 0.02 82 1013.2
20260906031607 82 237 2.0 5.0 0.00 0.02 0.02 82 1013.0
20260906031046 82 232 2.0 4.0 0.00 0.02 0.02 83 1013.1
20260906030545 82 244 1.0 4.0 0.00 0.02 0.02 82 1013.1
20260906030107 82 249 1.0 4.0 0.00 0.02 0.02 82 1013.1
20260906025545 82 250 1.0 5.0 0.00 0.02 0.02 82 1013.1
20260906025046 83 250 2.0 8.0 0.00 0.02 0.02 81 1013.2
20260906024604 83 228 1.0 8.0 0.00 0.02 0.02 81 1013.2
20260906024045 83 238 1.0 5.0 0.00 0.02 0.02 81 1013.1
20260906023543 83 234 1.0 6.0 0.00 0.02 0.02 81 1013.1
20260906023058 83 235 2.0 6.0 0.00 0.02 0.02 81 1013.0
20260906022542 82 242 2.0 4.0 0.00 0.02 0.02 81 1012.9
20260906022046 82 0 1.0 7.0 0.00 0.02 0.02 81 1012.9
20260906021605 82 244 1.0 7.0 0.00 0.02 0.02 81 1012.9
20260906021045 83 231 1.0 4.0 0.00 0.02 0.02 81 1012.7
20260906020544 83 243 1.0 5.0 0.00 0.02 0.02 81 1012.8
20260906020059 82 242 1.0 6.0 0.00 0.02 0.02 81 1012.5
20260906015543 82 264 1.0 6.0 0.00 0.02 0.02 81 1012.4
20260906015042 82 235 2.0 7.0 0.00 0.02 0.02 81 1012.2
20260906014558 82 227 1.0 7.0 0.00 0.02 0.02 81 1012.1
20260906014043 82 219 3.0 7.0 0.00 0.02 0.02 81 1012.0
20260906013542 82 233 2.0 5.0 0.00 0.02 0.02 81 1011.9
20260906013059 82 233 2.0 5.0 0.00 0.02 0.02 81 1011.9
20260906012548 82 239 1.0 5.0 0.00 0.02 0.02 82 1011.9
20260906012045 82 240 1.0 4.0 0.00 0.02 0.02 81 1011.7
20260906011557 83 240 1.0 5.0 0.00 0.02 0.02 80 1011.6
20260906011046 83 0 2.0 7.0 0.00 0.02 0.02 80 1011.6
20260906010543 83 236 3.0 7.0 0.00 0.02 0.02 80 1011.7
20260906010106 83 213 2.0 5.0 0.00 0.02 0.02 80 1011.7
20260906005543 83 236 2.0 5.0 0.00 0.02 0.02 80 1011.7
20260906005043 83 244 1.0 4.0 0.00 0.02 0.02 80 1011.7
20260906004605 83 234 1.0 6.0 0.00 0.02 0.02 80 1011.7
20260906004046 83 234 1.0 6.0 0.00 0.02 0.02 80 1011.9
20260906003543 83 234 2.0 6.0 0.00 0.02 0.02 80 1011.8
20260906003101 83 243 1.0 5.0 0.00 0.02 0.02 79 1011.8
20260906002543 83 239 2.0 5.0 0.00 0.02 0.02 79 1011.7
20260906002047 83 220 2.0 7.0 0.00 0.02 0.02 79 1011.7
20260906001606 84 236 2.0 7.0 0.00 0.02 0.02 80 1011.8
20260906001042 84 216 2.0 7.0 0.00 0.02 0.02 79 1011.8
20260906000543 84 243 2.0 7.0 0.00 0.02 0.02 79 1011.9
20260906000057 84 219 3.0 8.0 0.00 0.02 0.02 78 1012.0
20260905235543 84 247 4.0 8.0 0.00 0.02 0.02 78 1012.0
20260905235043 84 241 4.0 8.0 0.00 0.02 0.02 78 1012.0
20260905234602 85 207 3.0 9.0 0.00 0.02 0.02 78 1012.1
20260905234044 85 243 5.0 9.0 0.00 0.02 0.02 77 1012.0
20260905233547 85 237 3.0 9.0 0.00 0.02 0.02 77 1011.9
20260905233108 85 218 4.0 9.0 0.00 0.02 0.02 76 1011.8
20260905232547 85 232 3.0 9.0 0.00 0.02 0.02 76 1011.8
20260905232047 86 248 3.0 9.0 0.00 0.02 0.02 76 1011.9
20260905231600 86 246 3.0 10.0 0.00 0.02 0.02 76 1011.9
20260905231050 87 214 5.0 10.0 0.00 0.02 0.02 75 1011.8
20260905230544 87 263 5.0 8.0 0.00 0.02 0.02 75 1012.0
20260905230059 87 240 4.0 7.0 0.00 0.02 0.02 74 1012.0
20260905225547 87 229 3.0 7.0 0.00 0.02 0.02 75 1012.1
20260905225047 87 227 3.0 9.0 0.00 0.02 0.02 75 1012.0
20260905224601 87 186 4.0 11.0 0.00 0.02 0.02 74 1011.9
20260905224047 88 209 5.0 11.0 0.00 0.02 0.02 73 1012.0
20260905223547 88 215 6.0 11.0 0.00 0.02 0.02 76 1011.9
20260905223055 88 227 7.0 11.0 0.00 0.02 0.02 71 1011.8
20260905222547 89 232 5.0 9.0 0.00 0.02 0.02 71 1011.9
20260905222047 89 236 5.0 9.0 0.00 0.02 0.02 71 1011.9
20260905221603 90 207 2.0 8.0 0.00 0.02 0.02 72 1011.9
20260905221047 90 224 4.0 7.0 0.00 0.02 0.02 71 1012.1
20260905220549 90 279 3.0 9.0 0.00 0.02 0.02 71 1011.9